Home > Time Zones > World Clock > Weather > Peru > Lima > Past weeks

Flag for Peru Weather past 2 weeks in Lima, Lima, Peru

Now
64 °F

Overcast.


Feels Like: 64 °F
Forecast: 61 / 69 °F
Wind: 3 mph from South

Location: Lima-Callao / Aerop. Internacional Jorgechavez

Current Time: Aug 1, 2015 at 11:52:15 PM

Latest Report: Aug 1, 2015 at 11:00 PM


Visibility: N/A

Pressure: 29.95 "Hg

Humidity: 83%

Dew point: 59 °F

Location of LimaLocation

Historic Weather in Lima — Graph

°F

Lima temperature yesterday

Maximum temperature yesterday: 66 °F (at 10:00 AM)
Minimum temperature yesterday: 63 °F (at 4:00 AM)
Average temperature yesterday: 65 °F

Past Weeks' High & Low Weather Summary

 TemperatureHumidityPressure
High72 °F (Jul 20, 1:00 PM)100% (Aug 1, 6:00 AM)30.09 "Hg (Aug 1, 6:00 AM)
Low61 °F (Jul 28, 1:00 AM)61% (Jul 20, 2:00 PM)29.83 "Hg (Jul 25, 3:00 PM)
Average65 °F81%29.96 "Hg
* Reported Jul 17 10:00 PM — Aug 1 10:00 PM, Lima, Weather by CustomWeather, © 2015

Note: Actual official high and low records may vary slightly from our data, if they occured in-between our weather recording intervals... More about our weather records

Advertising

Lima weather history for previous 24 hours

 ConditionsComfort  
Time TempWeatherWind HumidityBarometerVisibility
10:00 PM
Sat, Aug 1
64 °FOvercast.5 mph83%29.95 "HgN/A
9:00 PM64 °FOvercast.6 mph83%29.92 "HgN/A
8:00 PM64 °FOvercast.7 mph78%29.92 "HgN/A
7:00 PM64 °FOvercast.7 mph78%29.92 "HgN/A
6:00 PM64 °FOvercast.6 mph83%29.89 "HgN/A
5:00 PM64 °FOvercast.6 mph78%29.89 "HgN/A
4:00 PM66 °FOvercast.7 mph73%29.89 "HgN/A
3:00 PM66 °FOvercast.7 mph78%29.92 "HgN/A
2:00 PM64 °FOvercast.8 mph83%29.92 "HgN/A
1:00 PM66 °FMore clouds than sun.8 mph78%29.95 "HgN/A
12:00 PM66 °FMostly cloudy.8 mph83%29.98 "HgN/A
11:00 AM66 °FMore clouds than sun.8 mph83%29.98 "HgN/A
10:00 AM64 °FMore clouds than sun.6 mph88%30.01 "HgN/A
9:00 AM63 °FMore clouds than sun.7 mph94%29.98 "Hg5 mi
8:00 AM61 °FDrizzle. Fog.6 mph100%29.98 "Hg2 mi
7:00 AM61 °FDrizzle. Fog.7 mph100%29.95 "Hg2 mi
6:00 AM61 °FDrizzle. Fog.5 mph100%29.95 "Hg3 mi
5:00 AM63 °FMostly cloudy.5 mph94%29.92 "Hg4 mi
4:00 AM63 °FDrizzle. Fog.5 mph94%29.92 "Hg2 mi
3:00 AM63 °FDrizzle. Fog.5 mph94%29.95 "Hg3 mi
2:00 AM63 °FDrizzle. Overcast.5 mph88%29.95 "Hg3 mi
1:00 AM63 °FDrizzle. Overcast.7 mph88%29.95 "Hg5 mi
12:00 AM64 °FOvercast.7 mph83%29.98 "HgN/A
11:00 PM
Fri, Jul 31
64 °FOvercast.7 mph83%29.98 "HgN/A
Weather by CustomWeather, © 2015

See weather overviewHow to use our weather pages